Location: Zagreb
(45.8000°N, 16.0000°E)
Time: 15:29:38
(UTC+02:00)

Transit 2A - Pass Details

Date: 18 August 2022
Orbit: 601 x 956 km, 66.7° (Epoch: 25 September)

Event Time Altitude Azimuth Distance (km) Brightness Sun altitude
Rises 20:29:14 0° 316° (NW) 2,868 10.5 -5.6°
Reaches altitude 10° 20:31:44 10° 303° (WNW) 1,978 9.9 -6.0°
Maximum altitude 20:35:21 25° 248° (WSW) 1,269 7.7 -6.6°
Drops below altitude 10° 20:39:10 10° 193° (SSW) 2,071 8.1 -7.2°
Sets 20:41:51 0° 180° (S) 3,035 8.8 -7.6°
